Weather History for Durango, CO

Change the Weather History Date:

Friday, May 16, 2014

  Actual Average Record
Temperature  
Mean Temperature 54 °F 53 °F  
Max Temperature 77 °F 71 °F 84 °F (1988)
Min Temperature 30 °F 36 °F 25 °F (1998)
Degree Days  
Heating Degree Days 11 12  
Month to date heating degree days 286 227  
Since 1 July heating degree days 6648 6863  
Cooling Degree Days 0 0  
Month to date cooling degree days 0 0  
Year to date cooling degree days 0 0  
Growing Degree Days 5 (Base 50)    
Moisture  
Dew Point 23 °F    
Average Humidity 44    
Maximum Humidity 75    
Minimum Humidity 12    
Precipitation  
Precipitation 0.00 in 0.03 in 0.47 in (1981)
Month to date precipitation 0.28 0.56  
Year to date precipitation 2.00 5.19  
Sea Level Pressure  
Sea Level Pressure 30.01 in    
Wind  
Wind Speed 9 mph (NW)    
Max Wind Speed 32 mph    
Max Gust Speed 41 mph    
Visibility 10 miles    
Events      
T = Trace of Precipitation, MM = Missing Value Source: NWS Daily Summary

Daily Weather History Graph

Daily Weather History Graph

Search for Another Location

Airport:

Trip Planner

Search our weather history database for the weather conditions in past years. The results will help you decide how hot, cold, wet, or windy it might be!

Date:

Astronomy

May. 16, 2014 Rise Set
Actual Time 6:01 AM MDT 8:13 PM MDT
Civil Twilight 5:32 AM MDT 8:42 PM MDT
Nautical Twilight 4:56 AM MDT 9:18 PM MDT
Astronomical Twilight 4:18 AM MDT 9:57 PM MDT
Moon 10:23 PM MDT (5/16) 7:46 AM MDT (5/16)
Length of Visible Light 15h 10m
Length of Day
14h 11m
Waning Gibbous, 95% of the Moon is Illuminated
May 16
Waning Gibbous
May 21
Last Quarter
May 28
New
Jun 5
First Quarter
Jun 12
Full

Hourly Weather History & Observations

Time (MDT) Temp. Windchill Dew Point Humidity Pressure Visibility Wind Dir Wind Speed Gust Speed Precip Events Conditions
12:53 AM 44.1 °F 41.5 °F 27.0 °F 51% 30.14 in 10.0 mi North 4.6 mph - N/A   Clear
2:53 AM 39.0 °F - 26.1 °F 60% 30.11 in 10.0 mi Calm Calm - N/A   Clear
3:53 AM 33.1 °F - 25.0 °F 72% 30.13 in 10.0 mi Calm Calm - N/A   Clear
4:53 AM 33.1 °F - 25.0 °F 72% 30.14 in 10.0 mi Calm Calm - N/A   Clear
5:53 AM 35.1 °F 30.1 °F 25.0 °F 67% 30.12 in 10.0 mi NNE 5.8 mph - N/A   Clear
6:53 AM 34.0 °F 29.8 °F 26.1 °F 73% 30.15 in 10.0 mi East 4.6 mph - N/A   Clear
7:53 AM 45.0 °F 43.5 °F 28.0 °F 52% 30.12 in 10.0 mi NE 3.5 mph - N/A   Clear
8:53 AM 50.0 °F - 30.0 °F 46% 30.12 in 10.0 mi East 4.6 mph - N/A   Clear
9:53 AM 61.0 °F - 28.9 °F 30% 30.07 in 10.0 mi Calm Calm - N/A   Clear
10:53 AM 66.9 °F - 23.0 °F 19% 30.03 in 10.0 mi SW 9.2 mph 17.3 mph N/A   Clear
11:53 AM 73.0 °F - 19.9 °F 14% 29.99 in 10.0 mi WSW 23.0 mph 34.5 mph N/A   Clear
12:53 PM 75.0 °F - 19.0 °F 12% 29.96 in 10.0 mi West 24.2 mph 32.2 mph N/A   Clear
2:53 PM 77.0 °F - 21.0 °F 12% 29.93 in 10.0 mi West 23.0 mph 33.4 mph N/A   Partly Cloudy
3:53 PM 73.9 °F - 19.9 °F 13% 29.95 in 10.0 mi WNW 17.3 mph 26.5 mph N/A   Clear
4:53 PM 73.0 °F - 19.0 °F 13% 29.95 in 10.0 mi WNW 24.2 mph 31.1 mph N/A   Clear
5:53 PM 72.0 °F - 19.0 °F 13% 29.93 in 10.0 mi WNW 16.1 mph 23.0 mph N/A   Scattered Clouds
6:53 PM 70.0 °F - 19.0 °F 14% 29.94 in 10.0 mi WNW 18.4 mph 27.6 mph N/A   Clear
7:53 PM 68.0 °F - 21.0 °F 17% 29.91 in 10.0 mi WNW 10.4 mph - N/A   Clear
8:53 PM 64.9 °F - 21.9 °F 19% 29.91 in 10.0 mi WNW 10.4 mph - N/A   Clear
9:53 PM 61.0 °F - 21.9 °F 22% 29.90 in 10.0 mi NNW 4.6 mph - N/A   Clear
10:53 PM 57.0 °F - 23.0 °F 27% 29.89 in 10.0 mi Calm Calm - N/A   Clear
11:53 PM 51.1 °F - 24.1 °F 35% 29.90 in 10.0 mi ENE 3.5 mph - N/A   Clear